Weather History for Newport, AR

Change the Weather History Date:

Wednesday, October 19, 2011

  Actual Average (KJBR) Record (KJBR)
Temperature  
Mean Temperature 46 °F 60 °F  
Max Temperature 54 °F 72 °F 91 °F (2005)
Min Temperature 39 °F 49 °F 31 °F (1948)
Degree Days  
Heating Degree Days 18 6  
Month to date heating degree days 77  
Since 1 July heating degree days 95  
Cooling Degree Days 0 1  
Month to date cooling degree days 41  
Year to date cooling degree days 1812  
Moisture  
Dew Point 37 °F    
Average Humidity 69    
Maximum Humidity 86    
Minimum Humidity 53    
Precipitation  
Precipitation 0.00 in 0.17 in 0.79 in (2002)
Month to date precipitation 2.58  
Year to date precipitation 36.75  
Snow  
Snow 0.00 in 0.00 in T in (1989)
Month to date snowfall 0.0  
Since 1 July snowfall 0.0  
Since 1 September snowfall 0.0  
Snow Depth -    
Sea Level Pressure  
Sea Level Pressure 29.87 in    
Wind  
Wind Speed 15 mph (NW)    
Max Wind Speed 21 mph    
Max Gust Speed 29 mph    
T = Trace of Precipitation, MM = Missing Value Source: NWS Daily Summary

Daily Weather History Graph

Daily Weather History Graph

Search for Another Location

Airport:

Trip Planner

Search our weather history database for the weather conditions in past years. The results will help you decide how hot, cold, wet, or windy it might be!

Date:

Astronomy

Oct. 19, 2011 Rise Set
Actual Time 7:14 AM CDT 6:24 PM CDT
Civil Twilight 6:48 AM CDT 6:50 PM CDT
Nautical Twilight 6:18 AM CDT 7:19 PM CDT
Astronomical Twilight 5:49 AM CDT 7:49 PM CDT
Moon No Moon Rise 1:40 PM CDT (10/19)
Length of Visible Light 12h 01m
Length of Day
11h 09m
Waning Gibbous, 54% of the Moon is Illuminated
Oct 19
Waning Gibbous
Oct 19
Last Quarter
Oct 26
New
Nov 2
First Quarter
Nov 10
Full

Hourly Weather History & Observations

Time (CDT) Temp. Windchill Dew Point Humidity Pressure Visibility Wind Dir Wind Speed Gust Speed Precip Events Conditions
12:56 AM 45.9 °F 39.4 °F 36.9 °F 71% 29.86 in - NW 15.0 mph - N/A   Mostly Cloudy
2:56 AM 43.9 °F 36.5 °F 36.0 °F 74% 29.84 in - NW 16.1 mph - N/A   Clear
3:56 AM 43.0 °F 35.7 °F 36.0 °F 76% 29.83 in - NW 15.0 mph - N/A   Clear
4:56 AM 41.9 °F 35.0 °F 36.0 °F 79% 29.82 in - NW 12.7 mph - N/A   Clear
5:56 AM 41.0 °F 35.2 °F 36.0 °F 82% 29.83 in - WNW 9.2 mph - N/A   Clear
6:56 AM 39.9 °F 33.9 °F 36.0 °F 86% 29.83 in - WNW 9.2 mph - N/A   Mostly Cloudy
7:56 AM 41.0 °F 33.9 °F 36.9 °F 85% 29.83 in - WNW 12.7 mph - N/A   Mostly Cloudy
9:56 AM 46.9 °F - 36.9 °F 68% 29.85 in - NW 20.7 mph - N/A   Overcast
10:56 AM 48.9 °F - 37.9 °F 66% 29.85 in - NW 17.3 mph - N/A   Overcast
11:56 AM 50.9 °F - 37.9 °F 61% 29.86 in - NW 20.7 mph 25.3 mph N/A   Overcast
12:56 PM 52.0 °F - 37.9 °F 59% 29.84 in - NW 19.6 mph 25.3 mph N/A   Overcast
1:56 PM 54.9 °F - 37.9 °F 53% 29.83 in - NW 20.7 mph 27.6 mph N/A   Overcast
2:56 PM 52.9 °F - 36.9 °F 55% 29.85 in - North - - N/A   Overcast
3:56 PM 50.9 °F - 36.9 °F 59% 29.88 in - NW 20.7 mph 28.8 mph N/A   Overcast
4:56 PM 50.0 °F - 36.9 °F 61% 29.89 in - WNW 20.7 mph 26.5 mph N/A   Overcast
5:56 PM 48.9 °F - 37.9 °F 66% 29.91 in - WNW 15.0 mph - N/A   Overcast
6:56 PM 48.9 °F - 36.9 °F 63% 29.94 in - WNW 17.3 mph - N/A   Overcast
7:56 PM 46.9 °F - 36.9 °F 68% 29.95 in - WNW 11.5 mph - N/A   Overcast
9:56 PM 45.9 °F 41.2 °F 36.0 °F 68% 29.95 in - West 9.2 mph - N/A   Overcast
10:56 PM 43.9 °F 38.8 °F 34.9 °F 71% 29.96 in - West 9.2 mph - N/A   Clear
11:56 PM 43.0 °F 37.7 °F 36.0 °F 76% 29.95 in - West 9.2 mph - N/A   Mostly Cloudy